Location: Jackson Park
(37.2862°N, 79.9123°W)
Time: 20:44:20
(UTC+00:00)

S-56A Canister/Altair - Pass Details

Date: 19 May 2026
Orbit: 633 x 2484 km, 38.9° (Epoch: 6 June)

Event Time Altitude Azimuth Distance (km) Brightness Sun altitude
Rises 04:10:14 0° 283° (WNW) 2,918 10.9 -30.9°
Reaches altitude 10° 04:12:25 10° 282° (WNW) 2,016 10.0 -31.0°
Enters shadow 04:13:29 18° 282° (WNW) 1,593 9.4 -31.1°
Maximum altitude 04:16:52 83° 196° (SSW) 697 - -31.3°
Drops below altitude 10° 04:22:19 10° 108° (ESE) 2,444 - -31.6°
Sets 04:25:13 0° 108° (ESE) 3,604 - -31.7°
